Regional Weather Roundup
Issued by NWS Goodland, KS

Home | Current Version | Previous Version | Graphics & Text | Print | Product List | Glossary On
Versions: 1 2 3 4 5 6 7 8 9 10 11 12 13 14 15 16 17 18 19 20 21 22 23 24 25 26 27 28 29 30 31 32 33 34 35 36 37 38 39 40 41 42 43 44 45 46 47 48 49 50
391
ASUS43 KGLD 250659
RWRGLD

GOODLAND FORECAST AREA HOURLY WEATHER ROUNDUP
NATIONAL WEATHER SERVICE GOODLAND KS
100 AM MDT THU MAY 25 2017

...OFFICIAL OBSERVATIONS...

CITY           SKY/WX    TMP DP  RH WIND       PRES   REMARKS
GOODLAND KS    CLEAR     55  45  68 S20       29.56F
HILL CITY KS   CLEAR     53  46  77 S8        29.61F
IMPERIAL NEB   CLEAR     57  44  62 S18G25    29.51F
MCCOOK NEB     PTCLDY    54  45  71 S12       29.55F
AKRON CO       CLEAR     62  41  46 S15       29.54F
BURLINGTON CO  CLEAR     56  46  69 S16       29.57F
LIMON CO       CLOUDY    39  38  96 CALM      29.64F
$$

...UNOFFICIAL OBSERVATIONS...

CITY           SKY/WX    TMP DP  RH WIND       PRES   REMARKS
LENORA KS        N/A     53  32  45 MISG        N/A
NORTON KS      CLEAR     54  43  66 SE13      29.58F
SHARON SPRINGS   N/A     55  47  74 S18         N/A
TRENTON NEB      N/A     53  32  45 S10         N/A
KIT CARSON CO    N/A     57  45  65 MISG        N/A
$$




USA.gov is the U.S. government's official web portal to all federal, state and local government web resources and services.